Regional Weather Roundup
Issued by NWS

Home | Current Version | Previous Version | Text Only | Print | Product List | Glossary Off
Versions: 1 2 3 4 5 6 7 8 9 10 11 12 13 14 15 16 17 18 19 20 21 22 23 24 25 26 27 28 29 30 31 32 33 34 35 36 37 38 39 40 41 42 43 44 45 46 47 48 49 50

000
ASUS43 KFSD 270802
RWRSD

WEATHER ROUNDUP FOR SOUTH DAKOTA
NATIONAL WEATHER SERVICE SIOUX FALLS SD
300 AM CDT MON APR 27 2015

NOTE: "FAIR" INDICATES FEW OR NO CLOUDS BELOW 12,000 FEET WITH NO
SIGNIFICANT WEATHER AND/OR OBSTRUCTIONS TO VISIBILITY.


SDZ001>005-009-010-012>017-270900-
NORTHWEST AND NORTH CENTRAL SOUTH DAKOTA

CITY           SKY/WX    TMP DP  RH WIND       PRES   REMARKS
BUFFALO          N/A     43  42  97 N13       30.13R
FAITH            N/A     46  38  73 NE3       30.15R
MOBRIDGE       CLOUDY    46  34  62 CALM      30.13F
$$

SDZ012>016-024>037-041>051-057-063-072>074-270900-
SOUTHWEST AND SOUTH CENTRAL SOUTH DAKOTA

CITY           SKY/WX    TMP DP  RH WIND       PRES   REMARKS
RAPID CTY ARPT MOCLDY    41  39  93 N7        30.16S
PIERRE         MOCLDY    40  33  76 E5        30.14S
CUSTER         CLOUDY    38  36  92 CALM      30.17R FOG
ELLSWORTH AFB  MOCLDY    46  45  94 N3        30.16S
PHILIP         CLOUDY    49  38  65 CALM      30.15S
PINE RIDGE     CLOUDY    44  40  85 CALM      30.15S
WINNER         FAIR      43  28  55 CALM      30.15S
$$

SDZ004>011-016>023-039-040-270900-
NORTHEAST SOUTH DAKOTA

CITY           SKY/WX    TMP DP  RH WIND       PRES   REMARKS
ABERDEEN       MOCLDY    37  29  72 CALM      30.18S
WATERTOWN      CLEAR     36  25  64 CALM      30.17F
BROOKINGS      CLEAR     43  25  49 E3        30.18F
SISSETON         N/A     36  26  67 CALM      30.18S
$$

SDZ017-020-022-023-036>040-048>070-270900-
SOUTHEAST SOUTH DAKOTA

CITY           SKY/WX    TMP DP  RH WIND       PRES   REMARKS
SIOUX FALLS    CLEAR     36  29  75 NE5       30.15S
HURON          CLEAR     42  28  57 E5        30.16S
MITCHELL       CLEAR     43  33  68 E5        30.16S
YANKTON        CLEAR     41  27  56 NE5       30.13S
$$

ABBREVIATIONS USED IN REMARKS
   TC - TEMPERATURE IN CELSIUS
  WCI - WIND CHILL INDEX
   HX - HEAT INDEX
  VSB - VISIBILITY




USA.gov is the U.S. government's official web portal to all federal, state and local government web resources and services.